Regional Weather Roundup
Issued by NWS

Home | Current Version | Previous Version | Text Only | Print | Product List | Glossary On
Versions: 1 2 3 4 5 6 7 8 9 10 11 12 13 14 15 16 17 18 19 20 21 22 23 24 25 26 27 28 29 30 31 32 33 34 35 36 37 38 39 40 41 42 43 44 45 46 47 48 49 50
286
ASHW40 PHFO 231143
RWRHI

WEATHER ROUNDUP FOR HAWAII
NATIONAL WEATHER SERVICE HONOLULU HI
100 AM HST TUE MAY 23 2017

THIS IS AN AUTOMATED REPORT THAT HAS NOT BEEN QUALITY CONTROLLED.

NOTE..."FAIR" INDICATES FEW OR NO CLOUDS BELOW 12,000 FEET WITH NO
SIGNIFICANT WEATHER AND/OR OBSTRUCTIONS TO VISIBILITY.

* - THESE SITES REPORT LIMITED FIELDS

HIZ001>004-231200-
KAUAI-NIIHAU-

CITY           SKY/WX    TMP DP  RH WIND       PRES   REMARKS
LIHUE APT      PTCLDY    76  64  66 NE18      30.10F
PORT ALLEN*      N/A     75 N/A N/A E15         N/A
POIPU*           N/A     75 N/A N/A NE10G21     N/A
PRINCEVILLE*     N/A     72 N/A N/A SE5         N/A
KOKOLE POINT*  NOT AVBL
MOLOAA DAIRY*    N/A     73  63  68 E6G12       N/A
WAIMEA HTS*      N/A     73  57  56 E12G21      N/A
PUU OPAE*      NOT AVBL
PUU LUA*       NOT AVBL
MAKAHA RIDGE*    N/A     66  48  52 CALM        N/A
$$

HIZ005>011-231200-
OAHU-

CITY           SKY/WX    TMP DP  RH WIND       PRES   REMARKS
HONOLULU       LGT RAIN  76  64  66 E20G32    30.07F
KALAELOA       PTCLDY    77  64  64 NE8       30.07F
KANEOHE MCB    NOT AVBL
WHEELER FIELD  DRIZZLE   72  64  78 NE8       30.06F
BELLOWS*         N/A    N/A N/A N/A NE18G25     N/A
KAHUKU*          N/A    N/A N/A N/A NE8G18      N/A
WHEELER*         N/A    N/A N/A N/A N6G12       N/A
WAIANAE HARBOR   N/A    N/A N/A N/A NE6G13      N/A
DILLINGHAM*      N/A     84  75  74 NW2         N/A  HX  92
KAHUKU TRN*      N/A     81  72  74 W12G25      N/A
KAWAILOA*        N/A     70  63  78 E12G22      N/A
KII*             N/A     75  66  73 NE18G25     N/A
MAKUA RANGE*     N/A     75  64  69 W5G15       N/A
OAHU FOREST NW NOT AVBL
SCHOFIELD BRK*   N/A     70  64  83 MISG        N/A
SCHOFIELD S*   NOT AVBL
WAIANAE VLY*   NOT AVBL
KUAOKALA*      NOT AVBL
HONOULIUULI*   NOT AVBL
MOKUOLOE IS*   NOT AVBL
PALEHUA*         N/A     63  59  88 NE7         N/A
WAIAWA PHB*    NOT AVBL
$$

HIZ012>013-231200-
MOLOKAI-

CITY           SKY/WX    TMP DP  RH WIND       PRES   REMARKS
MOLOKAI AIRPT  CLOUDY    73  67  81 NE15      30.08F
KALAUPAPA      NOT AVBL
MAKAPULAPAI*     N/A     73  68  83 E20G35      N/A
MOLOKAI 1*     NOT AVBL
PUU ALII*        N/A     58  58 100 N3G13       N/A
$$

HIZ016-231200-
KAHOOLAWE-

CITY           SKY/WX    TMP DP  RH WIND       PRES   REMARKS
KAHOOLAWE*     NOT AVBL
HAKIOAWA*        N/A     70  62  76 MISG      30.43F
HONOKANAIA*      N/A     77  67  72 E17G25    29.99
KANELOA*         N/A     72  64  78 NE17G36     N/A
KEALIALALO*    NOT AVBL
LUA MAKIKA*    NOT AVBL
$$

HIZ014>015-231200-
LANAI-

CITY           SKY/WX    TMP DP  RH WIND       PRES   REMARKS
LANAI CITY     FAIR      68  63  84 NE13      30.10F
LANAI 1*       NOT AVBL
$$

HIZ017>028-231200-
MAUI-

CITY           SKY/WX    TMP DP  RH WIND       PRES   REMARKS
KAHULUI        CLEAR     73  66  78 NE10      30.06F
KAPALUA-W MAUI NOT AVBL
HANA AIRPORT   MOCLDY    73  68  83 NE6       30.09F
HANA*            N/A     72 N/A N/A S5          N/A
HALEAKALA SUMM   N/A     43   1  17 E28         N/A
MAALAEA BAY*     N/A     73 N/A N/A N15G23      N/A
HALEAKALA*     NOT AVBL
KAUPO GAP*     NOT AVBL
KULA 1*          N/A     45  41  87 NE5         N/A
$$

HIZ023>026-231200-
BIG ISLAND OF HAWAII COAST AND LOWER SLOPES-

CITY           SKY/WX    TMP DP  RH WIND       PRES   REMARKS
KAILUA KONA    PTCLDY    75  60  59 E3        29.99F
HILO           CLOUDY    69  64  84 SW5       30.06F
HONOKAA*         N/A     66 N/A N/A VRB1        N/A
KAWAIHAE MWT*    N/A     79 N/A N/A SE8G18      N/A
KAWAIHAE*        N/A     81 N/A N/A SE17      29.98F
SOUTH POINT*     N/A     66 N/A N/A NW8         N/A
UPOLU AIRPORT* NOT AVBL
KAMUELA*       NOT AVBL
HAKALAU*         N/A     41  39  93 W3          N/A
KALOKO-HONOKO* NOT AVBL
PALI 2*          N/A     63  52  67 S18G26      N/A
KEALAKOMO*       N/A     75  63  64 N21G31      N/A
KAUPULEHU*       N/A     66  57  72 S3          N/A
KAPAPALA*        N/A     59  53  80 N3G12       N/A
LOWER KAHUKU*    N/A     55  54  94 N2G10       N/A
PUHE CS*         N/A     75  55  50 E8G22       N/A
PUHO CS*         N/A     74  64  69 E1          N/A
PTA KEAMUKU*     N/A     55  46  71 CALM        N/A
WAIKOLOA*        N/A     70  50  49 SE12G21     N/A
$$

HIZ027>028-231200-
BIG ISLAND OF HAWAII INTERIOR AND SUMMMITS-

CITY           SKY/WX    TMP DP  RH WIND       PRES   REMARKS
BRADSHAW FIELD PTCLDY    46  39  78 CALM      30.30F
MK VISITOR CEN   N/A     55 -13   6 N17         N/A
MAUNA KEA*       N/A     37 -24   6 NE16        N/A  WCI  28
MAUNA LOA*       N/A     46 -36   2 MISG        N/A
MAUNA LOA 1*   NOT AVBL
PTA KIPUKA*      N/A     50  50 100 SE3         N/A
PTA RANGE 17*    N/A     66  54  63 E18G29      N/A
PTA WEST*        N/A     73  55  53 SE12G24     N/A
NENE CABIN*      N/A    N/A N/A N/A NE5G13      N/A
AHUMOA*          N/A     45  34  65 NE6         N/A
PTA PORTABLE*  NOT AVBL
PUU MALI*        N/A     61  -8   6 E17G28      N/A
$$

HIC003-231200-
NORTHWEST ISLANDS-

CITY           SKY/WX    TMP DP  RH WIND       PRES   REMARKS
MIDWAY ISLAND  NOT AVBL
MIDWAY NOS*      N/A     70 N/A N/A MISG      30.31S
FRENCH FRIGATE NOT AVBL
$$

PHZ110>124-180-231200-
BUOY REPORTS

STATION/POSITION TIME  TEMP    WIND        PRES    WAVE   SWELL
                       AIR SEA DIR/SP/G            HT/PER HT/DIR
                 (UTC) (F)     (DEG/KT/KT) (MB)    (FT/S) (FT/D)
BUOY 51001       1120   74 77   50/ 21/ 27 1020.4
BUOY 51101       1050   75 77   50/ 23/ 29 1020.8F  10/ 8   3/340
BUOY 51100       NOT AVBL
BUOY 51002       1120   77 78   70/ 17/ 21 1014.8
BUOY 51003       1050   78 79   40/ 16/ 19 1016.2F   8/11   5/ 10
BUOY 51004       1050      78   70/ 17/ 21 1014.7F   7/14   3/ 10
BARBERS PT BUOY  NOT AVBL
WAIMEA BAY BUOY  1102      78                N/A     8/12   5/330
KAILUA BAY BUOY  1104      79                N/A     8/ 7   2/350
LANAI BUOY       NOT AVBL
BARBERS PT 2     NOT AVBL
PAUWELA MAUI     1109      78                N/A     7/11   3/320
HILO             NOT AVBL
KANEOHE BAY BUOY 1125      79                N/A     8/11   3/340
HANALEI KAUAI    1122      78                N/A     7/11   3/330
KAHULUI HARBOR   1112   76 79   50/ 10/ 14 1017.8
HONOLULU HARBOR  1112   75 79   40/  5/ 12 1018.7
KILO NALU        NOT AVBL
HILO HARBOR      1112   71 77  250/  3/  4 1017.5
MOKUOLOE         1036   75 79   90/ 14/ 20 1018.8F
NAWILIWILI       1112   76 82   60/ 12/ 16 1018.7
WHOTS BUOY       NOT AVBL
BUOY 51028       NOT AVBL
$$

......................KEY........................................
  SKY/WX - SKY CONDITIONS/PRESENT WEATHER
  TMP    - TEMPERATURE IN FAHRENHEIT
  DWPT   - DEWPOINT IN FAHRENHEIT
  RH     - RELATIVE HUMIDITY IN PERCENT
  WIND   - DIRECTION AND SPEED /MPH FOR ISLANDS...KTS FOR BUOYS/
  PRES   - MEAN SEA LEVEL PRESSURE IN INCHES OF HG
  VSB    - VISIBILITY IN MILES
  HX     - HEAT INDEX
  WCI    - WIND CHILL INDEX
  VRB    - VARIABLE WIND DIRECTION
  N/A    - NOT AVAILABLE




USA.gov is the U.S. government's official web portal to all federal, state and local government web resources and services.